Time,TemperatureF,DewpointF,PressureIn,WindDirection,WindDirectionDegrees,WindSpeedMPH,WindSpeedGustMPH,Humidity,HourlyPrecipIn,Conditions,Clouds,dailyrainin,SoftwareType,DateUTC
2013-02-02 00:01:00,26.5,16.0,30.32,South,184,4.0,10.0,66,0.00,,,0.00,weatherlink.com 1.10,2013-02-02 06:01:00,
2013-02-02 00:16:00,26.7,17.0,30.31,South,173,5.0,10.0,67,0.00,,,0.00,weatherlink.com 1.10,2013-02-02 06:16:00,
2013-02-02 00:31:00,26.7,17.0,30.31,South,174,4.0,7.0,68,0.00,,,0.00,weatherlink.com 1.10,2013-02-02 06:31:00,
2013-02-02 00:46:00,26.7,18.0,30.30,South,174,4.0,10.0,69,0.00,,,0.00,weatherlink.com 1.10,2013-02-02 06:46:00,
2013-02-02 01:01:00,26.8,18.0,30.29,South,182,6.0,11.0,69,0.00,,,0.00,weatherlink.com 1.10,2013-02-02 07:01:00,
2013-02-02 01:16:00,26.8,18.0,30.29,SSE,162,7.0,11.0,69,0.00,,,0.00,weatherlink.com 1.10,2013-02-02 07:16:00,
2013-02-02 01:31:00,26.9,18.0,30.27,SSW,200,7.0,12.0,70,0.00,,,0.00,weatherlink.com 1.10,2013-02-02 07:31:00,
2013-02-02 01:46:00,27.0,18.0,30.28,SW,217,6.0,8.0,69,0.00,,,0.00,weatherlink.com 1.10,2013-02-02 07:46:00,
2013-02-02 02:01:00,27.2,18.0,30.28,South,191,3.0,7.0,69,0.00,,,0.00,weatherlink.com 1.10,2013-02-02 08:01:00,
2013-02-02 02:16:00,27.2,19.0,30.27,SSE,167,7.0,11.0,70,0.00,,,0.00,weatherlink.com 1.10,2013-02-02 08:16:00,
2013-02-02 02:31:00,27.3,19.0,30.25,SSE,162,5.0,10.0,71,0.00,,,0.00,weatherlink.com 1.10,2013-02-02 08:31:00,
2013-02-02 02:46:00,27.4,19.0,30.25,South,178,7.0,9.0,71,0.00,,,0.00,weatherlink.com 1.10,2013-02-02 08:46:00,
2013-02-02 03:01:00,27.5,19.0,30.25,SSW,199,4.0,8.0,70,0.00,,,0.00,weatherlink.com 1.10,2013-02-02 09:01:00,
2013-02-02 03:16:00,27.6,19.0,30.25,South,180,4.0,7.0,70,0.00,,,0.00,weatherlink.com 1.10,2013-02-02 09:16:00,
2013-02-02 03:31:00,27.8,20.0,30.22,South,189,9.0,10.0,72,0.00,,,0.00,weatherlink.com 1.10,2013-02-02 09:31:00,
2013-02-02 03:46:00,28.0,20.0,30.23,South,178,4.0,9.0,71,0.00,,,0.00,weatherlink.com 1.10,2013-02-02 09:46:00,
2013-02-02 04:01:00,28.2,20.0,30.22,SSW,194,7.0,10.0,71,0.00,,,0.00,weatherlink.com 1.10,2013-02-02 10:01:00,
2013-02-02 04:16:00,28.3,20.0,30.23,SW,229,7.0,9.0,71,0.00,,,0.00,weatherlink.com 1.10,2013-02-02 10:16:00,
2013-02-02 04:31:00,28.5,20.0,30.22,South,175,2.0,9.0,70,0.00,,,0.00,weatherlink.com 1.10,2013-02-02 10:31:00,
2013-02-02 04:46:00,28.7,20.0,30.20,SSW,202,6.0,9.0,71,0.00,,,0.00,weatherlink.com 1.10,2013-02-02 10:46:00,
2013-02-02 05:01:00,28.7,20.0,30.19,South,175,3.0,9.0,71,0.00,,,0.00,weatherlink.com 1.10,2013-02-02 11:01:00,
2013-02-02 05:16:00,28.6,20.0,30.19,South,184,4.0,8.0,71,0.00,,,0.00,weatherlink.com 1.10,2013-02-02 11:16:00,
2013-02-02 05:31:00,28.2,20.0,30.18,South,173,3.0,7.0,72,0.00,,,0.00,weatherlink.com 1.10,2013-02-02 11:31:00,
2013-02-02 05:46:00,28.0,20.0,30.18,South,188,3.0,7.0,72,0.00,,,0.00,weatherlink.com 1.10,2013-02-02 11:46:00,
2013-02-02 06:01:00,27.8,20.0,30.18,South,173,5.0,7.0,73,0.00,,,0.00,weatherlink.com 1.10,2013-02-02 12:01:00,
2013-02-02 06:16:00,28.1,21.0,30.17,South,185,6.0,8.0,74,0.00,,,0.00,weatherlink.com 1.10,2013-02-02 12:16:00,
2013-02-02 06:31:00,28.5,21.0,30.16,South,187,6.0,9.0,73,0.00,,,0.00,weatherlink.com 1.10,2013-02-02 12:31:00,
2013-02-02 06:46:00,28.7,21.0,30.16,SSW,196,4.0,9.0,72,0.00,,,0.00,weatherlink.com 1.10,2013-02-02 12:46:00,
2013-02-02 07:01:00,28.8,21.0,30.16,SSW,209,3.0,7.0,72,0.00,,,0.00,weatherlink.com 1.10,2013-02-02 13:01:00,
2013-02-02 07:17:00,29.0,21.0,30.16,SSW,200,5.0,10.0,71,0.00,,,0.00,weatherlink.com 1.10,2013-02-02 13:17:00,
2013-02-02 07:31:00,29.0,21.0,30.15,South,184,4.0,8.0,71,0.00,,,0.00,weatherlink.com 1.10,2013-02-02 13:31:00,
2013-02-02 07:47:00,29.0,20.0,30.16,South,185,6.0,10.0,70,0.00,,,0.00,weatherlink.com 1.10,2013-02-02 13:47:00,
2013-02-02 08:02:00,29.6,21.0,30.16,SSW,205,3.0,8.0,70,0.00,,,0.00,weatherlink.com 1.10,2013-02-02 14:02:00,
2013-02-02 08:17:00,30.3,21.0,30.15,SSW,209,3.0,10.0,69,0.00,,,0.00,weatherlink.com 1.10,2013-02-02 14:17:00,
2013-02-02 08:32:00,30.7,21.0,30.15,SSW,198,7.0,11.0,68,0.00,,,0.00,weatherlink.com 1.10,2013-02-02 14:32:00,
2013-02-02 08:47:00,31.2,21.0,30.14,South,190,7.0,12.0,67,0.00,,,0.00,weatherlink.com 1.10,2013-02-02 14:47:00,
2013-02-02 09:02:00,32.3,22.0,30.14,South,186,5.0,10.0,67,0.00,,,0.00,weatherlink.com 1.10,2013-02-02 15:02:00,
2013-02-02 09:17:00,32.8,23.0,30.13,SSW,196,6.0,11.0,66,0.00,,,0.00,weatherlink.com 1.10,2013-02-02 15:17:00,
2013-02-02 09:32:00,33.0,23.0,30.13,SW,234,8.0,14.0,66,0.00,,,0.00,weatherlink.com 1.10,2013-02-02 15:32:00,
2013-02-02 09:47:00,33.7,23.0,30.13,WSW,240,1.0,12.0,64,0.00,,,0.00,weatherlink.com 1.10,2013-02-02 15:47:00,
2013-02-02 10:02:00,34.1,23.0,30.14,SW,222,5.0,10.0,64,0.00,,,0.00,weatherlink.com 1.10,2013-02-02 16:02:00,
2013-02-02 10:17:00,34.9,24.0,30.13,WNW,298,6.0,8.0,65,0.00,,,0.00,weatherlink.com 1.10,2013-02-02 16:17:00,
2013-02-02 10:32:00,35.5,24.0,30.13,SW,228,1.0,9.0,63,0.00,,,0.00,weatherlink.com 1.10,2013-02-02 16:32:00,
2013-02-02 10:47:00,36.0,24.0,30.13,WSW,252,5.0,10.0,63,0.00,,,0.00,weatherlink.com 1.10,2013-02-02 16:47:00,
2013-02-02 11:02:00,36.1,24.0,30.12,SSW,211,7.0,11.0,62,0.00,,,0.00,weatherlink.com 1.10,2013-02-02 17:02:00,
2013-02-02 11:17:00,36.7,25.0,30.11,SSW,202,7.0,10.0,63,0.00,,,0.00,weatherlink.com 1.10,2013-02-02 17:17:00,
2013-02-02 11:32:00,36.6,24.0,30.10,SW,224,10.0,10.0,61,0.00,,,0.00,weatherlink.com 1.10,2013-02-02 17:32:00,
2013-02-02 11:47:00,38.1,26.0,30.10,SW,236,6.0,9.0,63,0.00,,,0.00,weatherlink.com 1.10,2013-02-02 17:47:00,
2013-02-02 12:02:00,38.7,26.0,30.09,SW,225,6.0,13.0,60,0.00,,,0.00,weatherlink.com 1.10,2013-02-02 18:02:00,
2013-02-02 12:17:00,39.3,26.0,30.09,WSW,237,7.0,12.0,60,0.00,,,0.00,weatherlink.com 1.10,2013-02-02 18:17:00,
2013-02-02 12:32:00,39.1,27.0,30.08,WSW,238,4.0,11.0,61,0.00,,,0.00,weatherlink.com 1.10,2013-02-02 18:32:00,
2013-02-02 12:47:00,39.6,27.0,30.07,WNW,301,3.0,11.0,61,0.00,,,0.00,weatherlink.com 1.10,2013-02-02 18:47:00,
2013-02-02 13:02:00,40.8,29.0,30.07,WNW,294,5.0,14.0,62,0.00,,,0.00,weatherlink.com 1.10,2013-02-02 19:02:00,
2013-02-02 13:17:00,41.3,29.0,30.07,WNW,294,10.0,15.0,63,0.00,,,0.00,weatherlink.com 1.10,2013-02-02 19:17:00,
2013-02-02 13:32:00,41.7,30.0,30.07,West,259,7.0,15.0,63,0.00,,,0.00,weatherlink.com 1.10,2013-02-02 19:32:00,
2013-02-02 13:47:00,42.3,30.0,30.07,WNW,293,7.0,16.0,62,0.00,,,0.00,weatherlink.com 1.10,2013-02-02 19:47:00,
2013-02-02 14:02:00,42.8,30.0,30.07,WNW,285,5.0,13.0,62,0.00,,,0.00,weatherlink.com 1.10,2013-02-02 20:02:00,
2013-02-02 14:18:00,43.4,31.0,30.07,WNW,294,7.0,14.0,61,0.00,,,0.00,weatherlink.com 1.10,2013-02-02 20:18:00,
2013-02-02 14:33:00,43.2,30.0,30.07,NW,317,7.0,17.0,59,0.00,,,0.00,weatherlink.com 1.10,2013-02-02 20:33:00,
2013-02-02 14:48:00,43.0,29.0,30.08,NW,317,11.0,20.0,57,0.00,,,0.00,weatherlink.com 1.10,2013-02-02 20:48:00,
2013-02-02 15:03:00,43.3,29.0,30.07,NW,320,12.0,18.0,58,0.00,,,0.00,weatherlink.com 1.10,2013-02-02 21:03:00,
2013-02-02 15:18:00,43.3,28.0,30.07,NW,324,14.0,16.0,56,0.00,,,0.00,weatherlink.com 1.10,2013-02-02 21:18:00,
2013-02-02 15:33:00,43.3,30.0,30.08,NW,305,8.0,13.0,59,0.00,,,0.00,weatherlink.com 1.10,2013-02-02 21:33:00,
2013-02-02 15:48:00,43.1,29.0,30.08,WNW,291,7.0,11.0,57,0.00,,,0.00,weatherlink.com 1.10,2013-02-02 21:48:00,
2013-02-02 16:03:00,42.8,28.0,30.08,NW,312,10.0,15.0,57,0.00,,,0.00,weatherlink.com 1.10,2013-02-02 22:03:00,
2013-02-02 16:18:00,41.9,28.0,30.09,NW,313,5.0,15.0,59,0.00,,,0.00,weatherlink.com 1.10,2013-02-02 22:18:00,
2013-02-02 16:33:00,41.3,29.0,30.09,NW,321,7.0,12.0,61,0.00,,,0.00,weatherlink.com 1.10,2013-02-02 22:33:00,
2013-02-02 16:48:00,40.9,29.0,30.10,NW,322,7.0,11.0,62,0.00,,,0.00,weatherlink.com 1.10,2013-02-02 22:48:00,
2013-02-02 17:03:00,40.3,28.0,30.09,NW,319,5.0,9.0,62,0.00,,,0.00,weatherlink.com 1.10,2013-02-02 23:03:00,
2013-02-02 17:18:00,39.8,28.0,30.09,NNW,334,5.0,7.0,64,0.00,,,0.00,weatherlink.com 1.10,2013-02-02 23:18:00,
2013-02-02 17:33:00,39.5,29.0,30.10,WNW,294,5.0,8.0,66,0.00,,,0.00,weatherlink.com 1.10,2013-02-02 23:33:00,
2013-02-02 17:48:00,39.3,29.0,30.10,WNW,293,3.0,6.0,68,0.00,,,0.00,weatherlink.com 1.10,2013-02-02 23:48:00,
2013-02-02 18:03:00,39.4,29.0,30.11,NW,306,11.0,14.0,67,0.00,,,0.00,weatherlink.com 1.10,2013-02-03 00:03:00,
2013-02-02 18:18:00,39.3,30.0,30.11,NW,305,6.0,14.0,69,0.00,,,0.00,weatherlink.com 1.10,2013-02-03 00:18:00,
2013-02-02 18:33:00,38.7,30.0,30.12,NW,323,8.0,14.0,71,0.00,,,0.00,weatherlink.com 1.10,2013-02-03 00:33:00,
2013-02-02 18:48:00,38.7,30.0,30.12,NW,304,8.0,14.0,71,0.00,,,0.00,weatherlink.com 1.10,2013-02-03 00:48:00,
2013-02-02 19:03:00,38.2,30.0,30.13,WNW,300,6.0,14.0,72,0.00,,,0.00,weatherlink.com 1.10,2013-02-03 01:03:00,
2013-02-02 19:18:00,38.0,30.0,30.13,WNW,303,9.0,12.0,73,0.00,,,0.00,weatherlink.com 1.10,2013-02-03 01:18:00,
2013-02-02 19:33:00,37.7,30.0,30.13,NW,323,7.0,15.0,73,0.00,,,0.00,weatherlink.com 1.10,2013-02-03 01:33:00,
2013-02-02 19:48:00,37.1,30.0,30.13,WNW,294,8.0,10.0,74,0.00,,,0.00,weatherlink.com 1.10,2013-02-03 01:48:00,
2013-02-02 20:03:00,37.1,30.0,30.13,NW,314,7.0,12.0,74,0.00,,,0.00,weatherlink.com 1.10,2013-02-03 02:03:00,
2013-02-02 20:18:00,36.7,29.0,30.13,NW,315,4.0,11.0,75,0.00,,,0.00,weatherlink.com 1.10,2013-02-03 02:18:00,
2013-02-02 20:33:00,36.4,30.0,30.13,WNW,288,6.0,9.0,76,0.00,,,0.00,weatherlink.com 1.10,2013-02-03 02:33:00,
2013-02-02 20:48:00,36.3,29.0,30.13,NW,326,4.0,7.0,76,0.00,,,0.00,weatherlink.com 1.10,2013-02-03 02:48:00,
2013-02-02 21:03:00,35.7,29.0,30.13,NNW,336,5.0,8.0,76,0.00,,,0.00,weatherlink.com 1.10,2013-02-03 03:03:00,
2013-02-02 21:18:00,34.2,28.0,30.13,NNW,336,2.0,6.0,79,0.00,,,0.00,weatherlink.com 1.10,2013-02-03 03:18:00,
2013-02-02 21:33:00,33.3,28.0,30.13,NNW,336,0.0,2.0,80,0.00,,,0.00,weatherlink.com 1.10,2013-02-03 03:33:00,
2013-02-02 21:48:00,32.6,27.0,30.13,NNW,336,0.0,1.0,81,0.00,,,0.00,weatherlink.com 1.10,2013-02-03 03:48:00,
2013-02-02 22:03:00,31.9,27.0,30.12,NNW,336,0.0,1.0,82,0.00,,,0.00,weatherlink.com 1.10,2013-02-03 04:03:00,
2013-02-02 22:18:00,32.0,27.0,30.12,NNW,336,0.0,0.0,82,0.00,,,0.00,weatherlink.com 1.10,2013-02-03 04:18:00,
2013-02-02 22:33:00,31.7,27.0,30.11,NNW,336,0.0,0.0,83,0.00,,,0.00,weatherlink.com 1.10,2013-02-03 04:33:00,
2013-02-02 22:48:00,31.3,27.0,30.10,NNW,336,0.0,0.0,85,0.00,,,0.00,weatherlink.com 1.10,2013-02-03 04:48:00,
2013-02-02 23:03:00,30.7,27.0,30.09,NNW,336,0.0,0.0,87,0.00,,,0.00,weatherlink.com 1.10,2013-02-03 05:03:00,
2013-02-02 23:18:00,30.9,28.0,30.10,NNW,336,0.0,0.0,88,0.00,,,0.00,weatherlink.com 1.10,2013-02-03 05:18:00,
2013-02-02 23:33:00,30.9,28.0,30.10,NNW,336,0.0,0.0,88,0.00,,,0.00,weatherlink.com 1.10,2013-02-03 05:33:00,
2013-02-02 23:48:00,31.0,28.0,30.10,NNW,336,1.0,1.0,88,0.00,,,0.00,weatherlink.com 1.10,2013-02-03 05:48:00,